PBO Station Position Time Series. Reference Frame : NAM14
Format Version,1.1.0
4-character ID,LEV6
Station name,Level_Island_6
Begin Date, 2007-08-25
End Date, 2019-10-07
Release Date, 2019-10-08
Reference position, 56.4656594140 North Latitude, -133.0923871102 East Longitude, 25.45066 meters elevation,
Date, North (mm), East (mm), Vertical (mm), North Std. Deviation (mm), East Std. Deviation (mm),              Vertical Std. Deviation (mm), Quality,
2007-08-25,0.00, 0.00, 0.00, 2.52, 1.65, 7.60, repro,
2007-08-26,-0.38, -0.04, 0.45, 2.45, 1.60, 7.26, repro,
2007-08-27,-0.50, -0.31, -2.46, 2.48, 1.60, 7.31, repro,
2007-08-30,-3.10, 0.81, 10.51, 7.64, 4.44, 21.44, repro,
2007-10-21,0.26, -1.13, 4.45, 2.37, 1.51, 7.05, repro,
2007-10-22,-1.69, -0.82, 3.57, 2.53, 1.61, 7.77, repro,
2007-11-29,1.28, -0.41, -10.85, 2.72, 1.71, 8.20, repro,
2007-12-04,2.54, -1.75, -6.55, 2.50, 1.67, 8.30, repro,
2007-12-06,1.85, -1.90, -10.45, 2.54, 1.75, 8.52, repro,
2007-12-07,2.78, -2.24, -8.46, 2.54, 1.66, 7.81, repro,
2007-12-08,1.40, -2.15, -7.64, 2.61, 1.70, 8.05, repro,
2007-12-09,1.24, 0.60, -8.34, 2.62, 1.76, 8.51, repro,
2007-12-10,2.55, -0.66, -5.47, 2.74, 1.85, 8.43, repro,
2008-01-09,-0.87, -0.86, -6.57, 3.20, 1.99, 8.95, repro,
2008-04-23,-0.07, -0.05, -9.43, 5.72, 3.65, 17.46, repro,
2008-05-01,2.63, 0.61, -26.28, 3.32, 2.10, 9.92, repro,
2008-05-15,4.82, 1.40, -23.98, 4.78, 2.80, 13.45, repro,
2008-05-16,2.95, 1.20, -30.40, 4.23, 2.40, 11.94, repro,
2008-06-09,7.02, -2.92, -21.46, 6.62, 3.90, 20.18, repro,
2008-06-20,8.43, 3.56, -13.44, 8.90, 5.27, 21.29, repro,
2008-06-21,3.44, -0.44, -23.85, 2.36, 1.49, 7.14, repro,
2008-06-22,2.75, 0.71, -25.34, 2.40, 1.50, 7.11, repro,
2008-06-23,1.17, 0.85, -19.58, 2.83, 1.81, 8.86, repro,
2008-10-25,1.10, -0.56, -4.67, 2.41, 1.50, 7.09, repro,
2008-10-26,3.13, -0.29, -14.37, 2.41, 1.50, 7.08, repro,
2008-10-27,3.19, 0.04, -10.65, 2.40, 1.50, 7.09, repro,
2008-10-28,2.28, -2.07, -5.55, 2.62, 1.57, 7.45, repro,
2008-10-29,0.72, -0.71, -7.68, 2.73, 1.64, 7.81, repro,
2008-10-30,1.52, -0.61, -8.24, 2.51, 1.54, 7.27, repro,
2008-10-31,0.98, 2.60, -14.48, 4.25, 2.78, 14.20, repro,
2008-11-01,3.40, 0.37, -5.64, 2.55, 1.61, 7.45, repro,
2008-11-02,0.88, -1.05, -3.17, 2.45, 1.53, 7.27, repro,
2008-11-03,1.18, -0.47, -2.94, 2.44, 1.53, 7.24, repro,
2008-11-04,1.90, -0.93, -7.68, 2.42, 1.52, 7.25, repro,
2008-11-05,1.56, 0.73, -5.60, 2.40, 1.53, 7.16, repro,
2008-11-06,1.29, 0.06, -14.39, 2.46, 1.56, 7.45, repro,
2008-11-07,1.68, -0.10, -10.03, 2.45, 1.55, 7.27, repro,
2008-11-08,2.30, -0.23, -7.59, 2.48, 1.60, 7.63, repro,
2008-11-09,2.10, -0.88, -4.06, 2.48, 1.59, 7.59, repro,
2008-11-10,1.10, -1.17, -4.33, 2.39, 1.54, 7.21, repro,
2008-11-11,2.06, -0.18, -2.05, 2.48, 1.60, 7.60, repro,
2008-11-12,0.20, -1.13, -0.26, 2.44, 1.53, 7.24, repro,
2008-11-21,4.12, 0.47, -8.04, 2.56, 1.66, 7.97, repro,
2008-11-22,2.96, -0.93, -2.54, 2.52, 1.65, 7.81, repro,
2008-11-23,1.42, 1.43, -7.90, 2.51, 1.60, 7.57, repro,
2008-11-25,2.54, -0.77, -7.37, 2.40, 1.55, 7.28, repro,
2008-11-28,1.03, 0.44, -7.84, 2.43, 1.57, 7.48, repro,
2008-11-29,0.81, 1.57, -6.45, 2.48, 1.60, 7.62, repro,
2008-11-30,0.53, -0.06, -3.45, 2.45, 1.55, 7.32, repro,
2008-12-01,1.26, -0.44, -12.20, 2.38, 1.52, 7.06, repro,
2008-12-03,2.13, -0.08, -16.81, 2.50, 1.57, 7.37, repro,
2008-12-04,2.92, 1.42, -15.08, 2.43, 1.61, 7.48, repro,
2008-12-05,1.58, -0.39, -12.57, 2.91, 1.76, 8.41, repro,
2008-12-20,2.52, 0.06, -22.16, 2.47, 1.57, 7.43, repro,
2008-12-21,3.53, -0.61, -24.09, 2.40, 1.50, 7.07, repro,
2008-12-22,5.00, -0.47, -18.44, 2.43, 1.51, 7.23, repro,
2008-12-23,3.29, -0.60, -13.13, 2.41, 1.53, 7.25, repro,
2008-12-24,1.00, -1.11, -10.67, 2.39, 1.50, 7.08, repro,
2008-12-25,4.31, -1.43, -6.87, 2.41, 1.49, 7.08, repro,
2008-12-26,1.18, -0.78, -8.95, 2.41, 1.52, 7.09, repro,
2008-12-27,1.81, -0.79, -11.49, 2.44, 1.53, 7.32, repro,
2008-12-29,3.73, -1.00, -28.47, 2.42, 1.50, 7.13, repro,
2008-12-30,-0.20, 0.47, -28.40, 2.41, 1.49, 7.09, repro,
2008-12-31,0.78, 0.59, -26.20, 2.41, 1.48, 7.05, repro,
2009-01-01,0.91, -0.14, -20.74, 2.62, 1.62, 7.59, repro,
2009-01-02,2.61, -0.32, -22.79, 2.39, 1.49, 7.06, repro,
2009-01-03,3.11, -0.46, -19.67, 2.39, 1.50, 7.11, repro,
2009-01-04,1.77, -0.36, -18.63, 2.42, 1.53, 7.20, repro,
2009-01-05,4.01, -0.80, -3.93, 4.84, 3.50, 15.62, repro,
2009-01-06,0.92, -0.87, -14.68, 2.43, 1.50, 7.15, repro,
2009-01-07,2.24, -0.26, -16.06, 2.40, 1.49, 7.05, repro,
2009-01-08,1.54, -1.13, -19.11, 2.45, 1.55, 7.19, repro,
2009-01-09,4.14, -0.37, -20.42, 2.46, 1.55, 7.34, repro,
2009-01-10,2.96, -0.37, -23.53, 2.41, 1.50, 7.10, repro,
2009-01-11,0.86, -0.21, -26.66, 2.44, 1.51, 7.14, repro,
2009-01-12,2.46, -0.15, -26.55, 2.44, 1.51, 7.13, repro,
2009-01-13,3.44, 0.32, -27.14, 2.45, 1.53, 7.21, repro,
2009-01-14,4.15, -0.06, -23.02, 2.38, 1.51, 7.08, repro,
2009-01-15,2.42, -0.18, -16.73, 2.40, 1.50, 7.14, repro,
2009-01-16,2.63, -0.12, -18.61, 2.39, 1.49, 7.07, repro,
2009-01-17,3.35, 0.06, -25.25, 2.44, 1.50, 7.10, repro,
2009-01-18,4.07, -0.89, -17.91, 2.48, 1.53, 7.24, repro,
2009-01-19,3.41, 0.17, -23.38, 2.50, 1.54, 7.34, repro,
2009-01-20,3.46, 0.01, -25.74, 2.40, 1.51, 7.12, repro,
2009-01-21,3.95, 0.02, -18.22, 2.43, 1.53, 7.24, repro,
2009-01-22,4.78, 0.20, -23.48, 2.37, 1.49, 7.03, repro,
2009-01-23,3.77, -0.12, -34.51, 2.47, 1.52, 7.21, repro,
2009-01-24,3.50, -0.26, -28.43, 2.41, 1.51, 7.18, repro,
2009-01-25,4.34, 0.49, -27.92, 2.36, 1.48, 7.01, repro,
2009-01-26,3.28, 0.33, -20.72, 2.36, 1.48, 7.03, repro,
2009-01-27,4.19, -0.08, -21.81, 2.41, 1.51, 7.21, repro,
2009-01-28,3.35, 0.83, -22.66, 2.41, 1.51, 7.12, repro,
2009-01-29,1.77, 1.84, -16.21, 2.39, 1.51, 7.18, repro,
2009-01-30,2.68, -0.48, -14.70, 2.41, 1.52, 7.18, repro,
2009-01-31,3.16, -1.28, -13.59, 2.38, 1.48, 7.02, repro,
2009-02-01,4.55, 0.93, -21.69, 2.37, 1.49, 7.02, repro,
2009-02-02,3.51, -0.02, -17.89, 2.37, 1.49, 7.02, repro,
2009-02-03,0.73, -0.54, -17.28, 2.98, 1.85, 8.73, repro,
2009-02-04,3.34, 0.46, -23.67, 2.38, 1.50, 7.05, repro,
2009-02-05,3.99, 0.59, -18.60, 2.47, 1.55, 7.25, repro,
2009-02-06,3.67, 0.48, -16.71, 2.45, 1.54, 7.21, repro,
2009-02-07,4.38, 0.03, -11.82, 2.38, 1.49, 7.04, repro,
2009-02-08,2.28, 0.91, -17.92, 2.39, 1.48, 7.01, repro,
2009-02-09,3.32, 0.07, -21.49, 2.45, 1.53, 7.17, repro,
2009-02-10,4.17, 0.37, -24.71, 2.39, 1.50, 7.05, repro,
2009-02-11,2.11, 1.18, -24.68, 2.44, 1.54, 7.18, repro,
2009-02-12,3.26, 0.39, -28.45, 2.72, 1.76, 8.09, repro,
2009-02-13,2.96, 1.25, -31.46, 2.38, 1.49, 7.07, repro,
2009-02-14,3.72, 1.69, -29.24, 2.36, 1.49, 7.02, repro,
2009-02-15,1.38, 1.28, -23.40, 2.36, 1.50, 7.02, repro,
2009-02-16,2.83, 0.97, -20.61, 2.39, 1.51, 7.10, repro,
2009-02-17,3.59, 0.83, -21.33, 2.42, 1.52, 7.13, repro,
2009-02-18,4.21, 1.10, -22.90, 2.38, 1.49, 7.07, repro,
2009-02-19,2.08, 2.65, -27.91, 2.37, 1.50, 7.09, repro,
2009-02-20,2.23, 1.44, -32.10, 2.33, 1.50, 6.99, repro,
2009-02-21,3.58, 1.74, -29.90, 2.36, 1.51, 7.08, repro,
2009-02-22,5.13, 0.41, -24.85, 2.37, 1.51, 7.05, repro,
2009-02-23,3.39, 1.30, -32.82, 2.42, 1.53, 7.12, repro,
2009-02-24,5.46, 0.73, -23.61, 2.60, 1.79, 7.62, repro,
2009-02-25,2.95, -0.42, -32.64, 199.89, 311.54, 529.16, repro,
2009-02-26,1.97, 0.66, -25.81, 2.39, 1.53, 7.10, repro,
2009-02-27,1.82, 0.96, -25.47, 2.41, 1.54, 7.13, repro,
2009-02-28,1.73, 0.19, -33.73, 2.37, 1.50, 7.05, repro,
2009-03-01,1.09, 1.65, -26.42, 2.36, 1.50, 7.04, repro,
2009-03-02,2.45, 1.37, -20.60, 2.37, 1.50, 7.11, repro,
2009-03-03,1.74, -0.10, -17.17, 2.42, 1.56, 7.23, repro,
2009-03-04,2.16, 0.64, -25.31, 2.35, 1.51, 7.06, repro,
2009-03-05,1.93, 0.54, -24.56, 2.39, 1.54, 7.14, repro,
2009-03-06,2.23, 1.88, -22.41, 2.40, 1.56, 7.32, repro,
2009-03-07,2.40, 2.25, -24.06, 2.36, 1.50, 7.06, repro,
2009-03-08,4.00, 2.40, -31.77, 2.41, 1.56, 7.41, repro,
2009-03-09,2.45, 0.70, -28.76, 2.35, 1.52, 7.12, repro,
2009-03-10,2.71, 1.27, -33.69, 2.43, 1.58, 7.32, repro,
2009-03-11,1.17, 1.26, -30.32, 2.38, 1.50, 7.06, repro,
2009-03-12,0.92, 1.87, -29.04, 2.40, 1.55, 7.25, repro,
2009-03-13,0.69, 1.20, -21.53, 2.36, 1.51, 7.10, repro,
2009-03-14,1.35, 0.02, -16.68, 2.35, 1.51, 7.05, repro,
2009-03-15,1.86, -0.36, -11.58, 2.35, 1.51, 7.04, repro,
2009-03-16,1.09, 0.57, -15.93, 2.36, 1.50, 7.03, repro,
2009-03-17,3.08, 0.91, -21.33, 2.38, 1.50, 7.07, repro,
2009-03-18,1.62, 0.18, -24.32, 2.39, 1.50, 7.11, repro,
2009-03-19,1.75, 1.23, -26.79, 2.35, 1.48, 7.01, repro,
2009-03-20,2.75, 1.21, -21.62, 2.32, 1.49, 6.98, repro,
2009-03-21,1.40, -0.14, -24.27, 2.32, 1.51, 7.00, repro,
2009-03-22,1.06, -0.14, -24.67, 2.47, 1.57, 7.50, repro,
2009-03-23,1.78, 1.71, -29.21, 2.36, 1.50, 7.11, repro,
2009-03-24,2.57, 0.25, -23.27, 2.37, 1.50, 7.08, repro,
2009-03-25,4.03, 1.98, -25.55, 2.34, 1.50, 7.04, repro,
2009-03-26,1.76, 0.77, -20.87, 2.33, 1.49, 7.03, repro,
2009-03-27,1.31, -0.17, -15.60, 2.37, 1.50, 7.05, repro,
2009-03-28,1.99, 0.88, -22.52, 2.38, 1.49, 7.06, repro,
2009-03-29,1.15, 1.31, -25.48, 2.36, 1.49, 7.05, repro,
2009-03-30,1.50, 0.52, -18.37, 2.39, 1.51, 7.12, repro,
2009-03-31,2.76, 0.21, -20.44, 2.39, 1.51, 7.13, repro,
2009-04-01,2.99, 0.45, -23.20, 2.35, 1.50, 7.06, repro,
2009-04-02,0.17, 0.11, -26.05, 2.46, 1.54, 7.21, repro,
2009-04-03,1.61, 0.12, -26.55, 2.44, 1.52, 7.19, repro,
2009-04-04,1.90, 1.58, -24.69, 2.39, 1.51, 7.14, repro,
2009-04-05,3.92, 0.78, -18.96, 2.36, 1.49, 7.06, repro,
2009-04-06,2.93, 0.70, -28.34, 2.38, 1.51, 7.14, repro,
2009-04-07,1.81, -0.30, -22.96, 2.38, 1.53, 7.13, repro,
2009-04-08,1.87, -0.85, -18.88, 2.38, 1.53, 7.21, repro,
2009-04-09,0.36, -0.65, -24.58, 2.38, 1.51, 7.11, repro,
2009-04-10,0.74, 1.08, -21.58, 2.35, 1.51, 7.02, repro,
2009-04-11,0.96, 0.86, -22.52, 2.39, 1.51, 7.12, repro,
2009-04-12,2.71, 0.38, -18.44, 2.38, 1.50, 7.10, repro,
2009-04-13,2.70, -0.54, -27.15, 2.33, 1.51, 7.11, repro,
2009-04-14,2.94, 0.87, -28.08, 2.36, 1.51, 7.11, repro,
2009-04-15,2.12, 2.13, -20.47, 2.35, 1.50, 7.10, repro,
2009-04-16,3.39, 1.72, -27.25, 2.35, 1.50, 7.08, repro,
2009-04-17,3.58, -0.08, -24.13, 2.35, 1.52, 7.09, repro,
2009-04-18,1.59, 0.25, -26.89, 2.36, 1.51, 7.13, repro,
2009-04-19,0.53, 0.35, -22.87, 2.39, 1.51, 7.19, repro,
2009-04-20,1.15, 1.04, -25.89, 2.40, 1.53, 7.25, repro,
2009-04-21,1.59, 0.99, -29.68, 2.40, 1.53, 7.41, repro,
2009-04-22,1.74, 0.65, -23.74, 2.33, 1.50, 7.06, repro,
2009-04-23,4.67, 1.30, -30.58, 2.34, 1.49, 7.05, repro,
2009-04-24,2.80, 0.25, -22.06, 2.36, 1.50, 7.09, repro,
2009-04-25,3.71, 0.50, -25.25, 2.38, 1.53, 7.23, repro,
2009-04-26,4.32, 2.23, -29.65, 2.32, 1.51, 7.11, repro,
2009-04-27,4.03, 2.07, -29.91, 2.31, 1.48, 7.03, repro,
2009-04-28,4.77, 2.72, -31.84, 2.34, 1.50, 7.13, repro,
2009-04-29,2.31, 3.65, -24.17, 3.57, 2.24, 10.10, repro,
2009-04-30,3.79, 2.82, -33.62, 2.42, 1.56, 7.44, repro,
2009-05-01,4.07, 2.74, -35.90, 2.33, 1.50, 7.10, repro,
2009-05-02,4.93, 1.54, -26.01, 2.34, 1.49, 7.08, repro,
2009-05-03,2.62, 2.08, -21.93, 2.38, 1.51, 7.23, repro,
2009-05-04,4.49, 0.63, -18.93, 2.32, 1.49, 7.06, repro,
2009-05-05,3.66, 0.65, -19.87, 2.36, 1.49, 7.11, repro,
2009-05-06,2.43, 0.62, -18.60, 2.37, 1.51, 7.19, repro,
2009-05-07,4.97, 0.93, -22.14, 2.35, 1.52, 7.14, repro,
2009-05-08,5.01, 2.21, -26.94, 2.31, 1.50, 7.09, repro,
2009-05-09,2.87, 1.49, -24.32, 2.31, 1.49, 7.05, repro,
2009-05-10,3.54, 1.13, -27.20, 2.32, 1.49, 7.06, repro,
2009-05-11,3.18, 2.02, -27.73, 2.45, 1.54, 7.37, repro,
2009-05-12,4.55, 2.07, -23.70, 2.45, 1.52, 7.25, repro,
2009-05-13,4.72, 2.37, -17.25, 2.33, 1.49, 7.13, repro,
2009-05-14,4.19, 0.38, -23.61, 2.34, 1.51, 7.25, repro,
2009-05-15,4.28, 2.55, -18.84, 2.36, 1.51, 7.17, repro,
2009-05-16,3.54, 0.72, -24.37, 2.33, 1.49, 7.11, repro,
2009-05-17,2.59, 0.94, -22.11, 2.37, 1.53, 7.29, repro,
2009-05-18,4.43, 1.18, -23.66, 2.33, 1.50, 7.13, repro,
2009-05-19,4.67, 0.94, -21.69, 2.91, 1.89, 8.71, repro,
2009-05-20,1.90, 2.12, -25.01, 2.34, 1.52, 7.26, repro,
2009-05-21,3.90, 1.00, -25.05, 2.32, 1.50, 7.13, repro,
2009-05-22,4.92, 0.87, -24.13, 2.36, 1.49, 7.14, repro,
2009-05-23,3.73, 1.31, -28.86, 2.38, 1.51, 7.23, repro,
2009-05-24,4.68, 2.06, -29.14, 2.37, 1.50, 7.27, repro,
2009-05-25,5.06, 2.31, -25.84, 2.34, 1.49, 7.14, repro,
2009-05-26,-1.84, 1.04, -27.78, 3.17, 1.88, 9.37, repro,
2009-05-27,2.82, 1.16, -21.07, 2.74, 1.70, 8.24, repro,
2009-05-28,3.97, 1.10, -16.34, 2.59, 1.62, 7.97, repro,
2009-05-29,3.20, 0.67, -14.85, 2.34, 1.49, 7.14, repro,
2009-05-30,3.98, 2.12, -21.24, 2.32, 1.49, 7.12, repro,
2009-05-31,4.69, 1.14, -27.57, 2.31, 1.48, 7.08, repro,
2009-06-01,3.14, 2.01, -26.63, 2.35, 1.51, 7.24, repro,
2009-06-02,3.25, 1.41, -29.05, 2.48, 1.59, 7.67, repro,
2009-06-03,3.55, 2.45, -28.96, 2.38, 1.51, 7.29, repro,
2009-06-04,4.18, 1.74, -28.70, 2.31, 1.48, 7.08, repro,
2009-06-05,2.39, 1.14, -27.84, 2.32, 1.48, 7.12, repro,
2009-06-06,3.13, 1.12, -25.74, 2.38, 1.51, 7.28, repro,
2009-06-07,2.90, 0.24, -23.99, 2.32, 1.50, 7.14, repro,
2009-06-08,1.92, 1.70, -27.47, 2.35, 1.51, 7.23, repro,
2009-06-09,2.73, 2.01, -20.73, 2.42, 1.54, 7.41, repro,
2009-06-10,1.80, 3.75, -25.92, 2.89, 1.92, 9.26, repro,
2009-06-11,0.49, 1.26, -33.62, 3.21, 1.99, 9.43, repro,
2009-06-12,0.32, 3.23, -20.86, 2.35, 1.49, 7.13, repro,
2009-06-13,1.18, 1.41, -20.32, 2.35, 1.51, 7.17, repro,
2009-06-14,0.60, 1.85, -21.36, 2.40, 1.55, 7.37, repro,
2009-06-15,2.44, 2.10, -20.49, 2.36, 1.50, 7.19, repro,
2009-06-16,0.52, 1.30, -22.04, 2.37, 1.50, 7.23, repro,
2009-06-17,-0.64, 1.74, -20.49, 2.39, 1.52, 7.26, repro,
2009-06-18,0.22, -0.03, -15.87, 2.34, 1.50, 7.14, repro,
2009-06-19,1.77, 1.82, -17.81, 2.41, 1.56, 7.51, repro,
2009-06-20,2.62, 1.60, -18.72, 2.37, 1.53, 7.32, repro,
2009-06-21,1.52, 1.80, -15.27, 2.38, 1.52, 7.28, repro,
2009-06-22,-0.15, 1.82, -18.70, 2.36, 1.52, 7.19, repro,
2009-06-23,-0.09, 2.52, -16.00, 2.38, 1.52, 7.31, repro,
2009-06-24,1.45, 0.63, -10.84, 2.64, 1.68, 8.16, repro,
2009-06-25,1.31, 2.37, -20.71, 2.37, 1.52, 7.24, repro,
2009-06-26,1.53, 2.56, -20.39, 2.37, 1.52, 7.26, repro,
2009-06-27,1.39, 0.62, -8.52, 2.40, 1.53, 7.31, repro,
2009-06-28,-0.22, 1.07, -20.38, 2.46, 1.57, 7.47, repro,
2009-06-29,1.98, 1.81, -17.44, 2.39, 1.54, 7.35, repro,
2009-06-30,0.45, 1.01, -22.86, 2.37, 1.53, 7.27, repro,
2009-07-01,1.04, 2.63, -24.24, 2.37, 1.53, 7.28, repro,
2009-07-02,4.31, 2.42, -28.09, 4.20, 2.96, 13.99, repro,
2009-07-03,1.47, 2.21, -23.41, 2.35, 1.50, 7.13, repro,
2009-07-04,1.91, 2.51, -27.14, 2.35, 1.50, 7.15, repro,
2009-07-05,1.58, 2.86, -23.22, 2.39, 1.53, 7.28, repro,
2009-07-06,0.71, 2.29, -20.25, 2.34, 1.50, 7.10, repro,
2009-07-07,2.53, 2.64, -20.36, 2.38, 1.51, 7.24, repro,
2009-07-08,1.50, 1.04, -12.75, 2.42, 1.55, 7.33, repro,
2009-07-09,1.78, 1.39, -22.41, 2.36, 1.52, 7.18, repro,
2009-07-10,0.01, 2.13, -22.35, 2.41, 1.55, 7.40, repro,
2009-07-11,-0.35, 1.20, -17.50, 2.41, 1.56, 7.39, repro,
2009-07-12,1.23, 2.32, -18.85, 2.37, 1.51, 7.21, repro,
2009-07-13,2.04, 2.34, -15.91, 2.35, 1.50, 7.16, repro,
2009-07-14,1.82, 2.69, -21.86, 2.44, 1.57, 7.48, repro,
2009-07-15,-0.41, 2.85, -15.83, 2.37, 1.51, 7.20, repro,
2009-07-16,-1.13, 2.12, -19.29, 2.40, 1.52, 7.31, repro,
2009-07-17,0.78, 2.61, -14.39, 2.38, 1.52, 7.32, repro,
2009-07-19,2.22, 2.84, -15.31, 2.35, 1.51, 7.22, repro,
2009-07-20,0.80, 1.98, -20.65, 2.38, 1.51, 7.24, repro,
2009-07-21,1.53, 0.95, -17.10, 2.46, 1.60, 7.51, repro,
2009-07-22,0.91, 1.29, -14.24, 2.45, 1.55, 7.46, repro,
2009-07-23,-0.57, 2.48, -6.78, 2.51, 1.56, 7.65, repro,
2009-07-24,-0.06, 2.83, -14.14, 2.42, 1.56, 7.57, repro,
2009-07-25,1.97, 1.02, -16.10, 2.45, 1.53, 7.40, repro,
2009-07-26,-0.50, 1.46, -20.70, 5.59, 4.13, 15.86, repro,
2009-07-27,0.73, 1.91, -13.67, 2.37, 1.52, 7.25, repro,
2009-07-28,2.67, 0.25, -19.67, 2.39, 1.51, 7.25, repro,
2009-07-29,-0.72, 1.71, -20.44, 2.37, 1.50, 7.20, repro,
2009-07-30,0.47, 1.82, -9.96, 2.47, 1.55, 7.44, repro,
2009-07-31,-0.43, 1.42, -13.55, 2.37, 1.50, 7.14, repro,
2009-08-01,-0.48, 1.11, -13.27, 2.40, 1.54, 7.38, repro,
2009-08-02,-0.06, 1.34, -13.26, 2.40, 1.53, 7.32, repro,
2009-08-03,0.31, 1.79, -17.26, 2.50, 1.58, 7.61, repro,
2009-08-04,0.65, 1.78, -13.52, 2.35, 1.50, 7.11, repro,
2009-08-05,-0.22, 2.76, -14.14, 2.42, 1.55, 7.37, repro,
2009-08-06,-6.76, -13.45, 9.84, 15.68, 21.91, 31.25, repro,
2009-08-07,-2.69, 1.45, -11.87, 2.40, 1.54, 7.32, repro,
2009-08-08,-4.31, 1.90, -13.61, 2.40, 1.54, 7.35, repro,
2009-08-09,-1.88, 0.13, -13.80, 2.40, 1.53, 7.37, repro,
2009-08-10,-0.95, 0.79, -10.55, 4.01, 2.48, 11.59, repro,
2009-08-11,-1.60, 1.48, -9.03, 2.38, 1.52, 7.22, repro,
2009-08-12,-0.61, 0.15, -9.65, 2.42, 1.53, 7.32, repro,
2009-08-13,-1.65, 0.21, -7.37, 2.38, 1.52, 7.21, repro,
2009-08-14,-1.33, 2.17, -13.11, 2.39, 1.52, 7.25, repro,
2009-08-15,-1.54, 0.68, -4.95, 2.35, 1.50, 7.11, repro,
2009-08-16,-0.10, 0.91, -7.26, 2.38, 1.52, 7.28, repro,
2009-08-17,-0.89, 0.82, -0.76, 2.40, 1.52, 7.27, repro,
2009-08-18,-0.68, 0.98, -6.44, 2.39, 1.52, 7.28, repro,
2009-08-19,-0.15, 0.55, -2.51, 2.39, 1.52, 7.24, repro,
2009-08-20,-2.21, 1.09, -9.87, 2.43, 1.52, 7.35, repro,
2009-08-21,0.02, -0.06, -8.74, 2.45, 1.55, 7.49, repro,
2009-08-22,-1.12, 0.93, -2.31, 2.46, 1.59, 7.56, repro,
2009-08-23,-1.20, 1.56, -3.37, 2.40, 1.54, 7.35, repro,
2009-08-24,-1.31, -0.00, 4.60, 2.47, 1.57, 7.57, repro,
2009-08-25,-1.46, -0.75, 7.52, 2.47, 1.55, 7.49, repro,
2009-08-26,0.88, 0.28, -2.06, 2.46, 1.56, 7.39, repro,
2009-08-27,0.34, 2.43, -5.98, 2.44, 1.57, 7.50, repro,
2009-08-28,-2.44, 1.30, -0.48, 2.38, 1.53, 7.41, repro,
2009-08-29,0.28, 2.60, -8.01, 2.40, 1.55, 7.48, repro,
2009-08-30,-3.22, 2.93, -10.73, 2.47, 1.55, 7.51, repro,
2009-08-31,-0.54, 0.51, -12.33, 2.39, 1.51, 7.35, repro,
2009-09-01,-0.61, 1.46, -7.29, 2.42, 1.57, 7.59, repro,
2009-09-02,-0.82, 1.78, -3.30, 2.51, 1.64, 7.91, repro,
2009-09-09,2.59, -1.69, -4.60, 7.09, 4.84, 24.85, repro,
2009-09-10,-2.54, 1.61, -2.32, 2.41, 1.53, 7.40, repro,
2009-09-11,-0.88, 0.03, -10.61, 2.43, 1.54, 7.39, repro,
2009-09-12,-2.99, 0.51, -3.24, 2.36, 1.51, 7.24, repro,
2009-09-13,-0.01, -2.08, -2.42, 2.39, 1.53, 7.31, repro,
2009-09-14,-0.26, -0.32, -0.31, 2.37, 1.49, 7.13, repro,
2009-09-15,-2.73, 0.19, -8.37, 2.42, 1.52, 7.34, repro,
2009-09-16,1.00, -3.41, -0.01, 2.41, 1.52, 7.30, repro,
2009-09-17,-0.98, -1.02, 3.20, 2.38, 1.51, 7.24, repro,
2009-09-18,-2.79, 0.10, 1.99, 2.38, 1.54, 7.53, repro,
2009-09-19,-3.28, -1.01, 1.07, 2.39, 1.51, 7.27, repro,
2009-09-20,-1.22, -1.48, 1.94, 3.27, 2.07, 10.30, repro,
2009-09-21,4.81, 1.21, -28.25, 6.62, 4.53, 22.94, repro,
2009-09-22,-0.05, -0.92, -3.57, 2.45, 1.55, 7.45, repro,
2009-09-23,-6.85, -1.19, -3.83, 2.47, 1.57, 7.54, repro,
2009-09-24,-1.35, -0.58, -3.95, 2.35, 1.50, 7.15, repro,
2009-09-25,0.04, 0.58, 4.94, 2.44, 1.54, 7.43, repro,
2009-09-27,-2.26, -0.34, -7.98, 2.40, 1.50, 7.27, repro,
2009-09-28,-1.66, -1.78, -7.94, 2.40, 1.53, 7.31, repro,
2009-09-29,-1.88, -2.50, -4.86, 2.41, 1.54, 7.32, repro,
2009-09-30,-1.69, -1.88, -6.99, 2.35, 1.50, 7.22, repro,
2009-10-01,0.65, -1.03, -12.34, 2.55, 1.66, 8.14, repro,
2009-10-02,-0.74, -1.95, -16.31, 2.69, 1.68, 8.12, repro,
2009-10-03,-0.67, -0.70, -13.00, 2.37, 1.50, 7.22, repro,
2009-10-04,-0.97, -1.04, -11.04, 2.37, 1.50, 7.21, repro,
2009-10-05,-2.37, -1.40, -9.42, 2.35, 1.51, 7.22, repro,
2009-10-06,-1.49, -1.33, -2.88, 2.41, 1.51, 7.31, repro,
2009-10-07,0.78, -1.62, -8.58, 2.39, 1.51, 7.29, repro,
2009-10-08,-3.18, -1.37, -11.55, 2.48, 1.56, 7.37, repro,
2009-10-09,-0.61, -1.16, -16.46, 2.39, 1.50, 7.25, repro,
2009-10-10,0.31, -0.41, -15.71, 2.35, 1.51, 7.21, repro,
2009-10-11,-0.35, -0.64, -11.55, 2.35, 1.49, 7.17, repro,
2009-10-12,1.04, 0.71, -9.47, 2.37, 1.50, 7.22, repro,
2009-10-13,2.42, -3.21, -9.38, 2.40, 1.54, 7.38, repro,
2009-10-14,-2.38, -2.44, 0.25, 2.46, 1.54, 7.39, repro,
2009-10-15,1.22, -2.99, -2.93, 2.64, 1.67, 8.36, repro,
2009-10-16,-1.18, -2.78, -1.70, 2.49, 1.65, 8.06, repro,
2009-10-17,-0.57, -0.28, -10.83, 2.42, 1.53, 7.46, repro,
2009-10-18,-0.39, -0.84, -9.34, 2.48, 1.59, 7.74, repro,
2009-10-19,-1.52, 0.12, -13.64, 2.41, 1.54, 7.50, repro,
2009-10-20,-2.55, -0.07, -11.11, 2.41, 1.55, 7.53, repro,
2009-10-21,0.82, -1.53, 2.67, 2.38, 1.53, 7.39, repro,
2009-10-22,-0.75, -1.63, 1.60, 2.45, 1.56, 7.59, repro,
2009-10-23,2.53, 0.77, -1.38, 2.42, 1.55, 7.50, repro,
2009-10-24,0.80, 0.20, -1.95, 2.46, 1.59, 7.62, repro,
2009-10-25,0.14, 0.39, 5.48, 2.44, 1.56, 7.68, repro,
2009-10-26,-1.50, -1.58, 1.97, 2.43, 1.60, 7.66, repro,
2009-10-27,-2.16, -1.69, -2.57, 2.40, 1.56, 7.53, repro,
2009-10-28,-0.98, 0.34, -10.42, 2.47, 1.57, 7.56, repro,
2009-10-29,-0.49, -0.25, -4.46, 2.54, 1.63, 7.81, repro,
2009-10-30,-0.94, -0.83, -1.60, 2.40, 1.54, 7.37, repro,
2009-10-31,-1.39, -0.31, 7.09, 2.45, 1.57, 7.48, repro,
2009-11-01,-1.51, -1.46, -8.07, 2.43, 1.56, 7.35, repro,
2009-11-02,1.64, 0.22, -0.62, 2.45, 1.56, 7.41, repro,
2009-11-03,0.90, -0.98, -8.26, 2.40, 1.53, 7.34, repro,
2009-11-04,-0.05, 0.73, -9.53, 2.42, 1.55, 7.41, repro,
2009-11-05,-2.41, -2.74, 6.30, 2.79, 1.87, 8.74, repro,
2009-11-06,-1.54, -2.07, 14.42, 2.67, 1.74, 8.22, repro,
2009-11-07,-0.44, -1.76, 11.33, 2.41, 1.55, 7.57, repro,
2009-11-08,-1.59, 0.15, 1.85, 2.49, 1.58, 7.67, repro,
2009-11-09,1.96, -0.43, -2.76, 2.40, 1.57, 7.61, repro,
2009-11-10,1.10, -0.72, -5.03, 2.39, 1.56, 7.55, repro,
2009-11-11,-0.26, -0.66, -6.07, 2.41, 1.55, 7.50, repro,
2009-11-12,-0.03, 0.49, 2.18, 2.46, 1.59, 7.72, repro,
2009-11-13,0.22, -0.32, 3.13, 2.45, 1.59, 7.64, repro,
2009-11-14,-2.01, -2.13, 8.60, 2.56, 1.65, 7.89, repro,
2009-11-15,1.10, 0.04, 4.28, 2.41, 1.55, 7.53, repro,
2009-11-16,2.47, -0.28, 0.18, 2.43, 1.55, 7.54, repro,
2009-11-17,0.09, -0.09, -0.04, 2.44, 1.56, 7.65, repro,
2009-11-18,-0.19, 0.24, -2.89, 2.48, 1.60, 7.85, repro,
2009-11-19,0.89, -0.63, -0.01, 2.37, 1.54, 7.40, repro,
2009-11-20,-0.18, -0.80, -7.45, 2.39, 1.55, 7.47, repro,
2009-11-21,-0.60, -0.97, -5.59, 2.39, 1.53, 7.27, repro,
2009-11-22,1.61, -0.52, -2.17, 2.41, 1.54, 7.28, repro,
2009-11-23,-0.85, -0.65, -3.39, 2.37, 1.52, 7.22, repro,
2009-11-24,1.19, -0.73, -4.96, 2.36, 1.53, 7.20, repro,
2009-11-25,0.17, -1.05, -12.56, 2.45, 1.58, 7.68, repro,
2009-11-26,0.57, -1.17, -10.54, 2.55, 1.61, 7.93, repro,
2009-11-27,0.19, 0.64, -9.84, 2.43, 1.55, 7.53, repro,
2009-11-28,0.28, -1.32, -9.29, 2.76, 1.73, 8.62, repro,
2009-11-30,3.46, 1.05, -14.70, 3.62, 2.39, 11.64, repro,
2009-12-01,0.47, 0.99, -17.71, 2.42, 1.54, 7.44, repro,
2009-12-02,0.08, 1.52, -18.30, 2.37, 1.51, 7.21, repro,
2009-12-03,0.16, 2.19, -14.57, 3.02, 1.84, 8.96, repro,
2009-12-05,4.41, 3.10, -25.31, 4.64, 3.20, 14.53, repro,
2009-12-06,2.30, 0.47, -24.01, 2.32, 1.49, 7.09, repro,
2009-12-07,0.31, 0.48, -23.06, 2.36, 1.49, 7.15, repro,
2009-12-08,0.57, -0.15, -15.99, 2.38, 1.50, 7.20, repro,
2009-12-09,0.54, -0.20, -15.13, 2.57, 1.61, 7.95, repro,
2009-12-10,0.88, 0.66, -13.72, 2.42, 1.54, 7.31, repro,
2009-12-11,0.22, 0.04, -10.78, 2.34, 1.52, 7.35, repro,
2009-12-12,1.83, -0.44, -12.83, 2.36, 1.52, 7.40, repro,
2009-12-13,0.18, -0.16, -17.13, 2.35, 1.50, 7.18, repro,
2009-12-14,1.39, 0.07, -18.31, 2.34, 1.48, 7.11, repro,
2009-12-15,1.14, -0.13, -15.79, 2.33, 1.48, 7.06, repro,
2009-12-16,-0.70, -0.57, -12.02, 2.33, 1.49, 7.11, repro,
2009-12-17,1.90, -0.80, -12.03, 2.33, 1.49, 7.10, repro,
2009-12-18,0.74, -0.30, -7.84, 2.37, 1.51, 7.24, repro,
2009-12-19,-0.24, -0.77, -18.19, 2.38, 1.52, 7.36, repro,
2009-12-20,1.17, -0.65, -21.49, 2.37, 1.52, 7.29, repro,
2009-12-21,1.04, 0.14, -21.11, 2.37, 1.51, 7.30, repro,
2009-12-22,2.31, 0.58, -15.71, 2.36, 1.53, 7.32, repro,
2009-12-23,0.67, -1.56, -20.70, 2.48, 1.60, 7.56, repro,
2009-12-24,-1.54, -0.53, -21.65, 2.37, 1.52, 7.28, repro,
2009-12-25,1.30, -0.52, -18.94, 2.37, 1.53, 7.37, repro,
2009-12-26,2.93, -0.31, -15.80, 2.36, 1.53, 7.33, repro,
2009-12-27,2.64, -1.13, -24.07, 2.39, 1.53, 7.39, repro,
2009-12-28,2.71, -0.87, -15.97, 2.34, 1.50, 7.18, repro,
2009-12-29,1.35, 0.17, -24.43, 2.50, 1.60, 7.68, repro,
2009-12-30,-0.74, -3.22, -22.02, 3.48, 2.15, 10.10, repro,